Simultaneous Nadir Overpasses (SNOs) Predictions

Prediction of SNOs between GOES-17 and LANDSAT-8 Satellite Orbit:

Table of predicted SNOs for the next 14.0 days since TLE Epoch: 5/30/2025
Index Date Time (GOES-17) GOES-17 Lat,Lon LANDSAT-8 Lat,Lon Distance(km) Time Diff (sec)
1 05/31/2025 05:21:21 -0.02,-104.38 -0.57,-106.98 295.06 80
2 06/02/2025 05:06:29 -0.02,-104.38 0.04,-104.01 41.62 80
3 06/04/2025 04:54:18 -0.01,-104.38 0.71,-101.06 378.72 80
4 06/04/2025 17:15:33 0.01,-104.44 0.41,-106.21 201.40 80
5 06/06/2025 17:06:01 0.01,-104.45 -0.22,-103.24 136.12 80
6 06/07/2025 05:27:25 -0.01,-104.40 -0.88,-108.43 459.42 80
7 06/08/2025 16:53:49 0.00,-104.45 -0.86,-100.28 473.44 80
8 06/09/2025 05:15:13 -0.00,-104.40 -0.24,-105.47 122.21 80
9 06/11/2025 05:00:21 0.00,-104.40 0.42,-102.51 214.73 80
10 06/11/2025 17:21:36 -0.01,-104.45 0.69,-107.67 366.09 80
11 06/13/2025 17:09:23 -0.01,-104.45 0.08,-104.70 29.25 80
